Regional Weather Roundup
Issued by NWS

Home | Current Version | Previous Version | Graphics & Text | Print | Product List | Glossary On
Versions: 1 2 3 4 5 6 7 8 9 10 11 12 13 14 15 16 17 18 19 20 21 22 23 24 25 26 27 28 29 30 31 32 33 34 35 36 37 38 39 40 41 42 43 44 45 46 47 48 49 50
000
ASUS45 KCYS 270810
RWRWY

WYOMING REGIONAL WEATHER ROUNDUP
NATIONAL WEATHER SERVICE CHEYENNE WY
200 AM MDT MON JUL 27 2015

NOTE:  "FAIR" INDICATES FEW OR NO CLOUDS BELOW 12,000 FEET
WITH NO SIGNIFICANT WEATHER AND/OR OBSTRUCTIONS TO VISIBILITY.

WYZ001-270900-
YELLOWSTONE NATIONAL PARK

CITY           SKY/WX    TMP DP  RH WIND       PRES   REMARKS
LK YELLOWSTONE   N/A     43  38  82 W3        30.05F
W YELLOWSTONE  NOT AVBL

$$
WYZ002>013-054>058-071-098>099-270900-
NORTHERN WYOMING

CITY           SKY/WX    TMP DP  RH WIND       PRES   REMARKS
JACKSON        FAIR      50  43  76 CALM      29.95F
CODY           FAIR      64  37  36 SW5       29.84F
GREYBULL       FAIR      66  43  43 CALM      29.74F
WORLAND        FAIR      66  39  37 S6        29.77F
SHERIDAN       FAIR      59  47  64 CALM      29.77F
BUFFALO        FAIR      64  40  41 W7        29.84F
GILLETTE       FAIR      70  55  59 SE20G28   29.80F
HULETT         FAIR      64  57  77 E3        29.88F
NEWCASTLE      FAIR      70  50  49 SE16G23   29.90F

$$
WYZ014>020-022>026-101>103-270900-
CENTRAL WYOMING

CITY           SKY/WX    TMP DP  RH WIND       PRES   REMARKS
BIG PINEY      FAIR      47  31  53 E6        30.04S
PINEDALE       FAIR      45  34  65 CALM      30.05S
DUBOIS         FAIR      50  28  43 NW14      30.02F
LANDER         FAIR      75  26  16 SW16G23   29.88F
RIVERTON       FAIR      71  25  17 W8        29.89F
CASPER         FAIR      70  29  21 W7        29.89S
DOUGLAS        FAIR      67  53  61 SE17G25   29.90F

$$
WYZ021-027>030-104>119-270900-
SOUTHERN WYOMING

CITY           SKY/WX    TMP DP  RH WIND       PRES   REMARKS
EVANSTON       FAIR      60  30  32 S9        30.03F
KEMMERER       FAIR      61  30  31 CALM      30.04F
FORT BRIDGER   SUNNY     66  32  28 S15       30.04F
ROCK SPRINGS   FAIR      67  39  35 S5        30.02F
DIXON          FAIR      69  39  32 SE6       30.09F
RAWLINS        FAIR      68  39  34 SW10      30.06F
SARATOGA       FAIR      61  39  44 CALM      30.11F
LARAMIE        FAIR      56  51  84 S10       30.11F
CHEYENNE       FAIR      58  53  84 SW7       30.06F
TORRINGTON     FAIR      63  58  83 SE12      29.94S
PINE BLUFFS    FAIR      57  54  88 S5        30.02F

$$



USA.gov is the U.S. government's official web portal to all federal, state and local government web resources and services.